Weather History for Sheridan, WY

Change the Weather History Date:

Wednesday, May 1, 2013

  Actual Average Record
Temperature  
Mean Temperature 38 °F 48 °F  
Max Temperature 47 °F 62 °F 84 °F (1955)
Min Temperature 28 °F 34 °F 18 °F (1950)
Degree Days  
Heating Degree Days 27 17  
Month to date heating degree days 27 17  
Since 1 July heating degree days 7119 7118  
Cooling Degree Days 0 0  
Month to date cooling degree days 0 0  
Year to date cooling degree days 0 0  
Moisture  
Dew Point 20 °F    
Average Humidity 54    
Maximum Humidity 85    
Minimum Humidity 22    
Precipitation  
Precipitation 0.00 in 0.07 in 1.43 in (1915)
Month to date precipitation 0.00 0.07  
Year to date precipitation 4.29 3.75  
Sea Level Pressure  
Sea Level Pressure 30.51 in    
Wind  
Wind Speed 3 mph (NNW)    
Max Wind Speed 10 mph    
Max Gust Speed 15 mph    
Visibility 10 miles    
Events      
T = Trace of Precipitation, MM = Missing Value Source: NWS Daily Summary

Daily Weather History Graph

Daily Weather History Graph

Search for Another Location

Airport:

Trip Planner

Search our weather history database for the weather conditions in past years. The results will help you decide how hot, cold, wet, or windy it might be!

Date:

Astronomy

May. 01, 2013 Rise Set
Actual Time 5:57 AM MDT 8:13 PM MDT
Civil Twilight 5:25 AM MDT 8:45 PM MDT
Nautical Twilight 4:45 AM MDT 9:25 PM MDT
Astronomical Twilight 4:00 AM MDT 10:10 PM MDT
Moon 1:25 AM MDT (5/1) 11:39 AM MDT (5/1)
Length of Visible Light 15h 20m
Length of Day
14h 16m
Waning Gibbous, 58% of the Moon is Illuminated
May 1
Waning Gibbous
May 2
Last Quarter
May 9
New
May 17
First Quarter
May 24
Full

Hourly Weather History & Observations

Time (MDT) Temp. Windchill Dew Point Humidity Pressure Visibility Wind Dir Wind Speed Gust Speed Precip Events Conditions
12:53 AM 28.4 °F 24.6 °F 24.8 °F 86% 30.23 in 10.0 mi North 3.5 mph - N/A   Mostly Cloudy
1:53 AM 30.9 °F - 25.0 °F 79% 30.31 in 10.0 mi Calm Calm - N/A   Overcast
2:53 AM 30.9 °F - 27.0 °F 85% 30.31 in 10.0 mi Calm Calm - N/A   Overcast
3:53 AM 30.0 °F - 26.1 °F 85% 30.35 in 10.0 mi Calm Calm - N/A   Overcast
4:53 AM 28.9 °F 23.9 °F 25.0 °F 85% 30.39 in 10.0 mi North 4.6 mph - N/A   Overcast
5:53 AM 28.0 °F 22.8 °F 24.1 °F 85% 30.43 in 10.0 mi North 4.6 mph - N/A   Overcast
6:53 AM 28.4 °F 22.2 °F 21.2 °F 74% 30.37 in 10.0 mi NNE 5.8 mph - N/A   Overcast
7:53 AM 30.0 °F - 21.9 °F 72% 30.51 in 10.0 mi Calm Calm - N/A   Overcast
8:53 AM 30.9 °F - 23.0 °F 72% 30.53 in 10.0 mi Calm Calm - N/A   Overcast
10:53 AM 37.0 °F 34.5 °F 23.0 °F 57% 30.56 in 10.0 mi NNE 3.5 mph - N/A   Scattered Clouds
11:53 AM 39.2 °F 37.0 °F 21.2 °F 49% 30.47 in 10.0 mi Variable 3.5 mph - N/A   Overcast
12:53 PM 41.0 °F 39.0 °F 15.1 °F 35% 30.55 in 10.0 mi Variable 3.5 mph - N/A   Partly Cloudy
1:53 PM 44.6 °F 43.1 °F 19.4 °F 37% 30.47 in 10.0 mi Variable 3.5 mph - N/A   Mostly Cloudy
2:53 PM 43.0 °F 38.2 °F 18.0 °F 37% 30.55 in 10.0 mi North 8.1 mph - N/A   Overcast
3:53 PM 44.1 °F - 15.1 °F 31% 30.55 in 10.0 mi Calm Calm - N/A   Clear
4:53 PM 44.6 °F 41.4 °F 15.8 °F 31% 30.48 in 10.0 mi Variable 5.8 mph - N/A   Scattered Clouds
5:53 PM 45.0 °F - 9.0 °F 23% 30.57 in 10.0 mi Calm Calm - N/A   Partly Cloudy
6:53 PM 44.1 °F 42.5 °F 14.0 °F 30% 30.58 in 10.0 mi West 3.5 mph - N/A   Overcast
7:53 PM 39.0 °F 34.0 °F 21.9 °F 50% 30.61 in 10.0 mi SSW 6.9 mph - N/A   Mostly Cloudy
8:53 PM 34.0 °F 28.0 °F 24.1 °F 67% 30.64 in 10.0 mi SW 6.9 mph - N/A   Clear
9:53 PM 30.9 °F - 23.0 °F 72% 30.66 in 10.0 mi Calm Calm - N/A   Clear
10:53 PM 33.1 °F 30.0 °F 19.9 °F 59% 30.66 in 10.0 mi South 3.5 mph - N/A   Clear
11:53 PM 30.9 °F - 19.9 °F 64% 30.66 in 10.0 mi Calm Calm - N/A   Clear